Weather Roundup
Issued by NWS Chicago, IL

Home | Current Version | Previous Version | Text Only | Print | Product List | Glossary On
Versions: 1 2 3 4 5 6 7 8 9 10 11 12 13 14 15 16 17 18 19 20 21 22 23 24 25 26 27 28 29 30 31 32 33 34 35 36 37 38 39 40 41 42 43 44 45 46 47 48 49 50
000
NZUS59 KLOT 291621
HRRLOT

CHICAGO AREA WEATHER ROUNDUP
NATIONAL WEATHER SERVICE CHICAGO/ROMEOVILLE IL
1100 AM CDT SUN MAR 29 2015

NOTE: "FAIR" INDICATES FEW OR NO CLOUDS BELOW 12,000 FEET WITH NO
SIGNIFICANT WEATHER AND/OR OBSTRUCTIONS TO VISIBILITY.

* THESE STATIONS ARE NOT UNDER NWS QUALITY CONTROL. THEY ALSO MAY NOT
  REPORT WEATHER SUCH AS PRECIPITATION OR FOG.

ILZ005-006-012>014-019>023-291700-
NORTHEAST ILLINOIS

CITY           SKY/WX    TMP DP  RH WIND       PRES   REMARKS
OHARE          LGT RAIN  37  18  46 S20G35    29.97F
MIDWAY         CLOUDY    40  17  39 S22G32    30.00F
AURORA         FRZ RAIN  34  25  69 S24G32    29.97F WCI  21
LANSING*       CLOUDY    38  16  40 S26G32    30.04F
JOLIET*        LGT RAIN  37  26  62 S15G28    30.03F
WAUKEGAN       LGT RAIN  37  21  52 S23G36    29.93F
DUPAGE AIRPORT RAIN      34  25  69 S21G31    29.96F WCI  22
WHEELING       CLOUDY    38  17  42 S21G32    29.97F
KANKAKEE*      CLOUDY    39  23  52 S18G28    30.08F
MORRIS*        LGT RAIN  36  26  67 S23G30    30.02F
LEWIS AIRPORT* LGT RAIN  35  24  64 S17G26    30.02F WCI  25
NORTHERLY IS     N/A     39  17  41 S16         N/A
$$

WIZ051-052-058>065-066-070>072-291700-
SOUTHEAST WISCONSIN

CITY           SKY/WX    TMP DP  RH WIND       PRES   REMARKS
MILWAUKEE      FLURRIES  36  23  59 S16G29    29.88F
KENOSHA*       LGT RAIN  37  22  54 S24G31    29.92F
RACINE*        LGT RAIN  38  20  48 S23G33    29.93F
BURLINGTON     LGT SNOW  32  26  77 S15G26    29.89F WCI  22
WAUKESHA       LGT RAIN  34  25  69 S17G35    29.86F VSB 1   WCI  23
WEST BEND      LGT SNOW  32  27  80 S18G25    29.83F WCI  20
$$

INZ001>003-010>013-019-020-291700-
NORTHWEST INDIANA

CITY           SKY/WX    TMP DP  RH WIND       PRES   REMARKS
GARY*          PTSUNNY   41  10  28 S18G33    30.05F
MICHIGAN CITY* NOT AVBL
RENSSELAER*    NOT AVBL
VALPARAISO     CLOUDY    39  17  41 S21G33    30.07F
$$

LMZ740>746-291700-
SOUTHERN LAKE MICHIGAN

STATION/POSITION TIME  SKY/WX   TEMP WIND        PRES    VSBY
                                AIR  DIR/SP/G
                 (UTC)          (F)  (DEG/KT/KT) (MB)    (MI)
HARRISON CRIB    1600            38  180/ 35/ 43   N/A
BURNHAM HARBOR   1600            39  180/ 21/ 27   N/A
CALUMET HARBOR   1600            39  170/ 18/ 30 1014.9F
BURNS HARBOR     1500            36  190/ 23     1019.6F
MICHIGAN CITY    1600            38  150/ 21/ 26   N/A
$$

ABBREVIATIONS USED IN REMARKS
   TC - TEMPERATURE IN CELSIUS
  WCI - WIND CHILL INDEX
   HX - HEAT INDEX
  VSB - VISIBILITY
$$


USA.gov is the U.S. government's official web portal to all federal, state and local government web resources and services.